WetterOnline ( http://www.wetteronline.de )

Wetter aktuell PLZ Bereich 36404

Aktuelles Wetter: Bad Hersfeld (273m)

6-stündlich | Neueste Meldungen
Ortszeit Temperatur Wetter
Mo, 16.07. 2:00 16.7° C wolkig
So, 15.07. 20:00 27.4° C wolkenlos
So, 15.07. 14:00 25.8° C wolkenlos
So, 15.07. 8:00 17.3° C wolkenlos
So, 15.07. 2:00 17.4° C fast wolkenlos
Sa, 14.07. 20:00 26.6° C bedeckt
Sa, 14.07. 14:00 25.7° C leicht bewölkt
Sa, 14.07. 8:00 15.8° C fast wolkenlos
Ortszeit Temperatur Wetter
Mo, 16.07. 6:00 13.9° C bedeckt
Mo, 16.07. 5:50 13.9° C bedeckt
Mo, 16.07. 5:40 13.8° C bedeckt
Mo, 16.07. 5:30 14.5° C bedeckt
Mo, 16.07. 5:20 14.5° C bedeckt
Mo, 16.07. 5:10 14.8° C bedeckt
Mo, 16.07. 5:00 15.0° C bedeckt
Mo, 16.07. 4:30 15.1° C leicht bewölkt
Mo, 16.07. 4:00 15.7° C wolkig
Mo, 16.07. 3:30 15.4° C wolkig
Mo, 16.07. 3:00 15.9° C wolkig
Ortszeit Relative Feuchte Sichtweite
Mo, 16.07. 2:00 61% 18 km
So, 15.07. 20:00 31% 18 km
So, 15.07. 14:00 33% 16 km
So, 15.07. 8:00 69% 11 km
So, 15.07. 2:00 74% 14 km
Sa, 14.07. 20:00 36% 19 km
Sa, 14.07. 14:00 35% 18 km
Sa, 14.07. 8:00 73% 11 km
Ortszeit Relative Feuchte Sichtweite
Mo, 16.07. 6:00 69% 16 km
Mo, 16.07. 5:50 69% -
Mo, 16.07. 5:40 68% -
Mo, 16.07. 5:30 66% 18 km
Mo, 16.07. 5:20 66% -
Mo, 16.07. 5:10 65% -
Mo, 16.07. 5:00 63% 18 km
Mo, 16.07. 4:30 63% 18 km
Mo, 16.07. 4:00 61% 17 km
Mo, 16.07. 3:30 63% 18 km
Mo, 16.07. 3:00 63% 18 km
Ortszeit Niederschlagsmenge Niederschlagsart
Mo, 16.07. 2:00 0.0 l/m2 in 6 Std. -
So, 15.07. 20:00 0.0 l/m2 in 12 Std. -
So, 15.07. 14:00 0.0 l/m2 in 6 Std. -
So, 15.07. 8:00 0.0 l/m2 in 12 Std. -
So, 15.07. 2:00 0.0 l/m2 in 6 Std. -
Sa, 14.07. 20:00 0.0 l/m2 in 12 Std. -
Sa, 14.07. 14:00 0.0 l/m2 in 6 Std. -
Sa, 14.07. 8:00 0.0 l/m2 in 12 Std. -
Ortszeit Niederschlagsmenge Niederschlagsart
Mo, 16.07. 6:00 0.0 l/m2 in 1 Std. -
Mo, 16.07. 5:50 keine Meldung -
Mo, 16.07. 5:40 keine Meldung -
Mo, 16.07. 5:30 0.0 l/m2 in 1 Std. -
Mo, 16.07. 5:20 keine Meldung -
Mo, 16.07. 5:10 keine Meldung -
Mo, 16.07. 5:00 0.0 l/m2 in 1 Std. -
Mo, 16.07. 4:30 0.0 l/m2 in 1 Std. -
Mo, 16.07. 4:00 0.0 l/m2 in 1 Std. -
Mo, 16.07. 3:30 0.0 l/m2 in 1 Std. -
Mo, 16.07. 3:00 0.0 l/m2 in 1 Std. -
Ortszeit Stärke Spitze Richtung
km/h Bft. km/h Grad Sektor
Mo, 16.07. 2:00 4 1 22 350° N
So, 15.07. 20:00 13 3 30 360° N
So, 15.07. 14:00 13 3 24 330° NW
So, 15.07. 8:00 11 2 18 350° N
So, 15.07. 2:00 7 2 22 50° NO
Sa, 14.07. 20:00 14 3 25 340° N
Sa, 14.07. 14:00 7 2 18 250° W
Sa, 14.07. 8:00 6 1 7 330° NW
Ortszeit Stärke Spitze Richtung
km/h Bft. km/h Grad Sektor
Mo, 16.07. 6:00 2 1 9 250° W
Mo, 16.07. 5:50 2 1 - 250° W
Mo, 16.07. 5:40 4 1 - 220° SW
Mo, 16.07. 5:30 2 1 9 340° N
Mo, 16.07. 5:20 2 1 - - -
Mo, 16.07. 5:10 6 1 - 50° NO
Mo, 16.07. 5:00 4 1 7 170° S
Mo, 16.07. 4:30 0 0 7 - -
Mo, 16.07. 4:00 4 1 7 50° NO
Mo, 16.07. 3:30 0 0 4 - -
Mo, 16.07. 3:00 2 1 6 190° S
Ortszeit Untergrenze Bedeckung Gattung
total tief tief mittel hoch
Mo, 16.07. 2:00 2700 m 7/8 1/8 - - -
So, 15.07. 20:00 - 0/8 0/8 - - -
So, 15.07. 14:00 - 0/8 0/8 - - -
So, 15.07. 8:00 - 0/8 0/8 - - -
So, 15.07. 2:00 2700 m 1/8 1/8 - - -
Sa, 14.07. 20:00 1800 m 8/8 8/8 - - -
Sa, 14.07. 14:00 1800 m 3/8 3/8 - - -
Sa, 14.07. 8:00 2100 m 1/8 1/8 - - -
Ortszeit Bedeckungsgrad in Achtel und Wolkenuntergrenze
Mo, 16.07. 6:00 8(6900m) 8(8100m)
Mo, 16.07. 5:50 8(6900m) 8(8100m)
Mo, 16.07. 5:40 8(6900m) 8(7800m)
Mo, 16.07. 5:30 8(6900m) 8(7500m) 8(8700m)
Mo, 16.07. 5:20 8(6900m) 8(7500m) 8(8700m)
Mo, 16.07. 5:10 8(6900m) 8(8100m) 8(8700m)
Mo, 16.07. 5:00 8(6900m) 8(8100m) 8(8700m)
Mo, 16.07. 4:30 5(7500m) 6(8700m)
Mo, 16.07. 4:00 4(7200m) 8(8700m)
Mo, 16.07. 3:30 8(7500m) 8(8700m)
Mo, 16.07. 3:00 7(8100m) 8(8700m)
Ortszeit Luftdruck NN (hPa) Tendenz (hPa in 3 Std.)
Mo, 16.07. 2:00 1015 0,0
So, 15.07. 20:00 1013 - 0,5
So, 15.07. 14:00 1015 - 1,2
So, 15.07. 8:00 1017 - 0,3
So, 15.07. 2:00 1018 + 0,2
Sa, 14.07. 20:00 1016 - 0,6
Sa, 14.07. 14:00 1018 - 1,5
Sa, 14.07. 8:00 1021 + 0,2
Ortszeit Luftdruck NN (hPa) Tendenz (hPa in 3 Std.)
Mo, 16.07. 6:00 1015 - 0,1
Mo, 16.07. 5:50 1015 keine Meldung
Mo, 16.07. 5:40 1015 keine Meldung
Mo, 16.07. 5:30 1015 - 0,2
Mo, 16.07. 5:20 1015 keine Meldung
Mo, 16.07. 5:10 1015 keine Meldung
Mo, 16.07. 5:00 1015 0,0
Mo, 16.07. 4:30 1015 - 0,2
Mo, 16.07. 4:00 1015 - 0,3
Mo, 16.07. 3:30 1015 - 0,3
Mo, 16.07. 3:00 1015 - 0,2
Ortszeit Schneehöhe (cm)
Mo, 16.07. 2:00 -
So, 15.07. 20:00 -
So, 15.07. 14:00 -
So, 15.07. 8:00 -
So, 15.07. 2:00 -
Sa, 14.07. 20:00 -
Sa, 14.07. 14:00 -
Sa, 14.07. 8:00 -
Ortszeit Schneehöhe (cm)
Mo, 16.07. 6:00 -
Mo, 16.07. 5:50 -
Mo, 16.07. 5:40 -
Mo, 16.07. 5:30 -
Mo, 16.07. 5:20 -
Mo, 16.07. 5:10 -
Mo, 16.07. 5:00 -
Mo, 16.07. 4:30 -
Mo, 16.07. 4:00 -
Mo, 16.07. 3:30 -
Mo, 16.07. 3:00 -
Link zu dieser Seite / Seite empfehlen

Das Wetter in ...